IR1CH-3 Weather Reports


time (UTC)temp
C
wind
direction
speed
KPH
gust
KPH
rain 1hr
cm
rain 24hr
cm
rain mn
cm
humidity
%
barometer
mb
20260503181131 17 0.0 0.0 0.00 0.00 0.00 84 1017.9
20260503174130 17 0.0 0.0 0.00 0.00 0.00 84 1018.0
20260503171130 17 0.0 0.0 0.00 0.00 0.00 81 1018.1
20260503131127 19 0.0 0.0 0.00 0.00 0.00 58 1019.5
20260503081124 16 0.0 0.0 0.00 0.00 0.00 79 1020.4
20260503071124 15 0.0 0.0 0.00 0.00 0.00 71 1020.1
20260503054123 17 0.0 0.0 0.00 0.00 0.00 52 1019.9
20260503051122 14 0.0 0.0 0.00 0.00 0.00 60 1019.8
20260503044122 13 0.0 0.0 0.00 0.00 0.00 58 1019.8
20260503041122 13 0.0 0.0 0.00 0.00 0.00 56 1019.6
20260503034121 13 0.0 0.0 0.00 0.00 0.00 55 1019.6
20260503031121 13 0.0 0.0 0.00 0.00 0.00 54 1019.7
20260503024121 14 0.0 0.0 0.00 0.00 0.00 55 1019.9
20260503021120 14 0.0 0.0 0.00 0.00 0.00 54 1019.9
20260503014120 14 0.0 0.0 0.00 0.00 0.00 55 1020.0
20260503011120 14 0.0 0.0 0.00 0.00 0.00 53 1020.0
20260503004119 14 0.0 0.0 0.00 0.00 0.00 52 1020.3
20260503001119 14 0.0 0.0 0.00 0.00 0.00 53 1020.4
20260502234119 15 0.0 0.0 0.00 0.00 0.00 52 1020.7
20260502231118 15 0.0 0.0 0.00 0.00 0.00 51 1020.8
20260502224118 15 0.0 0.0 0.00 0.00 0.00 52 1020.9
20260502221118 15 0.0 0.0 0.00 0.00 0.00 52 1021.0
20260502214117 15 0.0 0.0 0.00 0.00 0.00 52 1021.0
20260502211117 16 0.0 0.0 0.00 0.00 0.00 51 1021.1
20260502204117 16 0.0 0.0 0.00 0.00 0.00 50 1021.2
20260502201116 16 0.0 0.0 0.00 0.00 0.00 50 1021.3
20260502194116 17 0.0 0.0 0.00 0.00 0.00 49 1021.2
20260502191116 16 0.0 0.0 0.00 0.00 0.00 54 1020.9
20260502184115 17 0.0 0.0 0.00 0.00 0.00 58 1020.7